Time,TemperatureF,DewpointF,PressureIn,WindDirection,WindDirectionDegrees,WindSpeedMPH,WindSpeedGustMPH,Humidity,HourlyPrecipIn,Conditions,Clouds,dailyrainin,SoftwareType,DateUTC
2013-03-28 00:00:00,26.7,20.8,30.22,West,280,0.0,0.0,78,0.00,CLR,,0.00,WeatherDisplay:10.37,2013-03-28 05:00:00,
2013-03-28 00:05:00,26.7,20.8,30.22,West,280,0.0,0.0,78,0.00,CLR,,0.00,WeatherDisplay:10.37,2013-03-28 05:05:00,
2013-03-28 00:10:00,26.7,20.8,30.22,West,280,0.0,0.0,78,0.00,CLR,,0.00,WeatherDisplay:10.37,2013-03-28 05:10:00,
2013-03-28 00:15:00,26.8,20.5,30.22,West,280,0.0,0.0,77,0.00,CLR,,0.00,WeatherDisplay:10.37,2013-03-28 05:15:00,
2013-03-28 00:20:00,27.0,20.7,30.22,West,280,0.0,0.0,77,0.00,CLR,,0.00,WeatherDisplay:10.37,2013-03-28 05:20:00,
2013-03-28 00:25:00,27.3,20.7,30.22,West,280,0.0,0.0,76,0.00,CLR,,0.00,WeatherDisplay:10.37,2013-03-28 05:25:00,
2013-03-28 00:30:00,27.8,20.9,30.22,West,280,0.0,0.0,75,0.00,CLR,,0.00,WeatherDisplay:10.37,2013-03-28 05:30:00,
2013-03-28 00:35:00,28.1,20.9,30.22,West,280,0.0,0.0,74,0.00,CLR,,0.00,WeatherDisplay:10.37,2013-03-28 05:35:00,
2013-03-28 00:40:00,28.2,20.7,30.22,West,280,0.0,0.0,73,0.00,CLR,,0.00,WeatherDisplay:10.37,2013-03-28 05:40:00,
2013-03-28 00:45:00,28.5,20.6,30.22,West,280,0.0,2.0,72,0.00,CLR,,0.00,WeatherDisplay:10.37,2013-03-28 05:45:00,
2013-03-28 00:50:00,28.8,20.9,30.22,West,281,0.0,2.0,72,0.00,CLR,,0.00,WeatherDisplay:10.37,2013-03-28 05:50:00,
2013-03-28 00:55:00,29.0,20.8,30.22,West,280,0.0,0.0,71,0.00,CLR,,0.00,WeatherDisplay:10.37,2013-03-28 05:55:00,
2013-03-28 01:00:00,29.0,20.4,30.22,West,280,0.0,2.0,70,0.00,CLR,,0.00,WeatherDisplay:10.37,2013-03-28 06:00:00,
2013-03-28 01:05:00,29.1,20.5,30.22,West,280,0.0,2.0,70,0.00,CLR,,0.00,WeatherDisplay:10.37,2013-03-28 06:05:00,
2013-03-28 01:10:00,29.3,20.4,30.22,West,280,0.0,3.0,69,0.00,CLR,,0.00,WeatherDisplay:10.37,2013-03-28 06:10:00,
2013-03-28 01:15:00,29.6,20.4,30.22,WNW,291,1.0,3.0,68,0.00,CLR,,0.00,WeatherDisplay:10.37,2013-03-28 06:15:00,
2013-03-28 01:20:00,29.7,20.4,30.22,WNW,300,1.0,3.0,68,0.00,CLR,,0.00,WeatherDisplay:10.37,2013-03-28 06:20:00,
2013-03-28 01:25:00,29.7,20.4,30.22,NW,304,0.0,2.0,68,0.00,CLR,,0.00,WeatherDisplay:10.37,2013-03-28 06:25:00,
2013-03-28 01:30:00,29.5,20.6,30.23,NW,306,0.0,2.0,69,0.00,CLR,,0.00,WeatherDisplay:10.37,2013-03-28 06:30:00,
2013-03-28 01:35:00,29.5,20.2,30.23,NW,307,1.0,2.0,68,0.00,CLR,,0.00,WeatherDisplay:10.37,2013-03-28 06:35:00,
2013-03-28 01:40:00,29.4,20.5,30.23,NW,306,0.0,2.0,69,0.00,CLR,,0.00,WeatherDisplay:10.37,2013-03-28 06:40:00,
2013-03-28 01:45:00,29.4,20.8,30.23,NW,307,1.0,3.0,70,0.00,CLR,,0.00,WeatherDisplay:10.37,2013-03-28 06:45:00,
2013-03-28 01:50:00,29.1,20.5,30.23,NW,306,2.0,3.0,70,0.00,CLR,,0.00,WeatherDisplay:10.37,2013-03-28 06:50:00,
2013-03-28 01:55:00,29.1,20.5,30.23,NW,306,0.0,2.0,70,0.00,CLR,,0.00,WeatherDisplay:10.37,2013-03-28 06:55:00,
2013-03-28 02:00:00,29.1,21.2,30.23,NW,306,0.0,1.0,72,0.00,CLR,,0.00,WeatherDisplay:10.37,2013-03-28 07:00:00,
2013-03-28 02:05:00,28.8,20.9,30.23,NW,306,0.0,2.0,72,0.00,CLR,,0.00,WeatherDisplay:10.37,2013-03-28 07:05:00,
2013-03-28 02:10:00,28.7,20.8,30.23,NW,306,0.0,0.0,72,0.00,CLR,,0.00,WeatherDisplay:10.37,2013-03-28 07:10:00,
2013-03-28 02:15:00,28.3,20.8,30.22,NW,306,0.0,0.0,73,0.00,CLR,,0.00,WeatherDisplay:10.37,2013-03-28 07:15:00,
2013-03-28 02:25:00,27.6,20.1,30.22,NW,306,0.0,0.0,73,0.00,CLR,,0.00,WeatherDisplay:10.37,2013-03-28 07:25:00,
2013-03-28 02:30:00,27.6,20.4,30.22,NW,306,0.0,0.0,74,0.00,CLR,,0.00,WeatherDisplay:10.37,2013-03-28 07:30:00,
2013-03-28 02:35:00,27.5,20.0,30.22,NW,306,0.0,0.0,73,0.00,CLR,,0.00,WeatherDisplay:10.37,2013-03-28 07:35:00,
2013-03-28 02:40:00,27.3,20.1,30.22,NW,306,0.0,0.0,74,0.00,CLR,,0.00,WeatherDisplay:10.37,2013-03-28 07:40:00,
2013-03-28 02:45:00,27.2,20.0,30.22,NW,306,0.0,0.0,74,0.00,CLR,,0.00,WeatherDisplay:10.37,2013-03-28 07:45:00,
2013-03-28 02:50:00,27.2,20.0,30.22,NW,306,0.0,0.0,74,0.00,CLR,,0.00,WeatherDisplay:10.37,2013-03-28 07:50:00,
2013-03-28 03:00:00,27.0,19.8,30.22,NW,306,0.0,2.0,74,0.00,CLR,,0.00,WeatherDisplay:10.37,2013-03-28 08:00:00,
2013-03-28 03:05:00,26.7,19.6,30.22,NW,306,0.0,0.0,74,0.00,CLR,,0.00,WeatherDisplay:10.37,2013-03-28 08:05:00,
2013-03-28 03:10:00,26.6,19.7,30.22,NW,306,0.0,0.0,75,0.00,CLR,,0.00,WeatherDisplay:10.37,2013-03-28 08:10:00,
2013-03-28 03:15:00,26.4,19.8,30.22,NW,306,0.0,2.0,76,0.00,CLR,,0.00,WeatherDisplay:10.37,2013-03-28 08:15:00,
2013-03-28 03:20:00,26.0,19.5,30.22,NW,306,0.0,2.0,76,0.00,CLR,,0.00,WeatherDisplay:10.37,2013-03-28 08:20:00,
2013-03-28 03:25:00,26.0,19.8,30.22,NW,306,0.0,1.0,77,0.00,CLR,,0.00,WeatherDisplay:10.37,2013-03-28 08:25:00,
2013-03-28 03:30:00,25.8,19.6,30.22,NW,306,0.0,2.0,77,0.00,CLR,,0.00,WeatherDisplay:10.37,2013-03-28 08:30:00,
2013-03-28 03:35:00,25.8,19.9,30.22,NW,306,0.0,0.0,78,0.00,CLR,,0.00,WeatherDisplay:10.37,2013-03-28 08:35:00,
2013-03-28 03:40:00,26.0,19.8,30.22,NW,306,0.0,0.0,77,0.00,CLR,,0.00,WeatherDisplay:10.37,2013-03-28 08:40:00,
2013-03-28 03:45:00,26.0,19.8,30.23,NW,306,0.0,0.0,77,0.00,CLR,,0.00,WeatherDisplay:10.37,2013-03-28 08:45:00,
2013-03-28 03:50:00,26.0,19.8,30.23,NW,306,0.0,0.0,77,0.00,CLR,,0.00,WeatherDisplay:10.37,2013-03-28 08:50:00,
2013-03-28 04:00:00,26.1,19.6,30.22,NW,306,0.0,2.0,76,0.00,CLR,,0.00,WeatherDisplay:10.37,2013-03-28 09:00:00,
2013-03-28 04:05:00,26.0,19.5,30.22,NW,306,0.0,0.0,76,0.00,CLR,,0.00,WeatherDisplay:10.37,2013-03-28 09:05:00,
2013-03-28 04:10:00,25.8,19.3,30.22,NW,306,0.0,2.0,76,0.00,CLR,,0.00,WeatherDisplay:10.37,2013-03-28 09:10:00,
2013-03-28 04:15:00,26.0,19.5,30.22,NW,306,1.0,2.0,76,0.00,CLR,,0.00,WeatherDisplay:10.37,2013-03-28 09:15:00,
2013-03-28 04:20:00,26.0,19.5,30.22,NW,306,0.0,0.0,76,0.00,CLR,,0.00,WeatherDisplay:10.37,2013-03-28 09:20:00,
2013-03-28 04:25:00,25.8,19.3,30.22,NW,306,0.0,0.0,76,0.00,CLR,,0.00,WeatherDisplay:10.37,2013-03-28 09:25:00,
2013-03-28 04:30:00,25.4,18.9,30.22,NW,306,0.0,2.0,76,0.00,CLR,,0.00,WeatherDisplay:10.37,2013-03-28 09:30:00,
2013-03-28 04:35:00,24.8,18.9,30.22,NW,306,0.0,0.0,78,0.00,CLR,,0.00,WeatherDisplay:10.37,2013-03-28 09:35:00,
2013-03-28 04:40:00,24.5,19.3,30.22,NW,306,1.0,2.0,80,0.00,CLR,,0.00,WeatherDisplay:10.37,2013-03-28 09:40:00,
2013-03-28 04:45:00,25.0,19.4,30.22,NW,306,0.0,2.0,79,0.00,CLR,,0.00,WeatherDisplay:10.37,2013-03-28 09:45:00,
2013-03-28 04:50:00,25.1,19.2,30.22,NW,306,0.0,0.0,78,0.00,CLR,,0.00,WeatherDisplay:10.37,2013-03-28 09:50:00,
2013-03-28 04:55:00,24.9,18.7,30.22,NW,306,0.0,0.0,77,0.00,CLR,,0.00,WeatherDisplay:10.37,2013-03-28 09:55:00,
2013-03-28 05:00:00,24.6,18.4,30.22,NW,306,0.0,0.0,77,0.00,CLR,,0.00,WeatherDisplay:10.37,2013-03-28 10:00:00,
2013-03-28 05:05:00,24.4,18.5,30.22,NW,306,0.0,1.0,78,0.00,CLR,,0.00,WeatherDisplay:10.37,2013-03-28 10:05:00,
2013-03-28 05:10:00,24.2,18.6,30.22,NW,306,0.0,0.0,79,0.00,CLR,,0.00,WeatherDisplay:10.37,2013-03-28 10:10:00,
2013-03-28 05:15:00,24.1,18.5,30.23,NW,306,0.0,0.0,79,0.00,CLR,,0.00,WeatherDisplay:10.37,2013-03-28 10:15:00,
2013-03-28 05:20:00,24.4,18.8,30.23,NW,306,0.0,2.0,79,0.00,CLR,,0.00,WeatherDisplay:10.37,2013-03-28 10:20:00,
2013-03-28 05:25:00,24.4,18.5,30.23,NW,306,0.0,2.0,78,0.00,CLR,,0.00,WeatherDisplay:10.37,2013-03-28 10:25:00,
2013-03-28 05:30:00,24.5,18.6,30.23,NW,306,0.0,1.0,78,0.00,CLR,,0.00,WeatherDisplay:10.37,2013-03-28 10:30:00,
2013-03-28 05:35:00,24.5,18.6,30.23,NW,306,0.0,0.0,78,0.00,CLR,,0.00,WeatherDisplay:10.37,2013-03-28 10:35:00,
2013-03-28 05:40:00,24.5,18.6,30.23,NW,306,0.0,1.0,78,0.00,CLR,,0.00,WeatherDisplay:10.37,2013-03-28 10:40:00,
2013-03-28 05:45:00,24.5,18.3,30.23,NW,306,0.0,0.0,77,0.00,CLR,,0.00,WeatherDisplay:10.37,2013-03-28 10:45:00,
2013-03-28 05:50:00,24.5,18.3,30.23,NW,306,0.0,0.0,77,0.00,CLR,,0.00,WeatherDisplay:10.37,2013-03-28 10:50:00,
2013-03-28 05:55:00,24.2,18.3,30.23,NW,306,0.0,0.0,78,0.00,CLR,,0.00,WeatherDisplay:10.37,2013-03-28 10:55:00,
2013-03-28 06:00:00,23.9,18.4,30.24,NW,306,0.0,0.0,79,0.00,CLR,,0.00,WeatherDisplay:10.37,2013-03-28 11:00:00,
2013-03-28 06:05:00,23.6,18.3,30.24,NW,306,0.0,0.0,80,0.00,CLR,,0.00,WeatherDisplay:10.37,2013-03-28 11:05:00,
2013-03-28 06:10:00,23.6,18.3,30.24,NW,306,0.0,0.0,80,0.00,CLR,,0.00,WeatherDisplay:10.37,2013-03-28 11:10:00,
2013-03-28 06:15:00,23.6,18.3,30.24,NW,306,0.0,2.0,80,0.00,CLR,,0.00,WeatherDisplay:10.37,2013-03-28 11:15:00,
2013-03-28 06:20:00,23.8,18.5,30.24,NW,306,0.0,2.0,80,0.00,CLR,,0.00,WeatherDisplay:10.37,2013-03-28 11:20:00,
2013-03-28 06:25:00,24.2,18.6,30.24,NW,306,0.0,0.0,79,0.00,CLR,,0.00,WeatherDisplay:10.37,2013-03-28 11:25:00,
2013-03-28 06:30:00,24.7,18.5,30.24,NW,306,0.0,0.0,77,0.00,CLR,,0.00,WeatherDisplay:10.37,2013-03-28 11:30:00,
2013-03-28 06:35:00,24.9,18.4,30.24,NW,306,0.0,0.0,76,0.00,CLR,,0.00,WeatherDisplay:10.37,2013-03-28 11:35:00,
2013-03-28 06:40:00,25.0,18.2,30.24,NW,306,0.0,2.0,75,0.00,CLR,,0.00,WeatherDisplay:10.37,2013-03-28 11:40:00,
2013-03-28 06:45:00,25.0,18.2,30.24,NW,306,0.0,1.0,75,0.00,CLR,,0.00,WeatherDisplay:10.37,2013-03-28 11:45:00,
2013-03-28 06:50:00,25.0,18.2,30.24,NW,306,0.0,2.0,75,0.00,CLR,,0.00,WeatherDisplay:10.37,2013-03-28 11:50:00,
2013-03-28 06:55:00,25.3,18.2,30.24,NW,306,0.0,2.0,74,0.00,CLR,,0.00,WeatherDisplay:10.37,2013-03-28 11:55:00,
2013-03-28 07:00:00,25.1,18.0,30.24,NW,306,0.0,0.0,74,0.00,CLR,,0.00,WeatherDisplay:10.37,2013-03-28 12:00:00,
2013-03-28 07:05:00,25.0,18.2,30.24,NW,306,0.0,0.0,75,0.00,CLR,,0.00,WeatherDisplay:10.37,2013-03-28 12:05:00,
2013-03-28 07:10:00,24.7,18.2,30.24,NW,306,0.0,0.0,76,0.00,CLR,,0.00,WeatherDisplay:10.37,2013-03-28 12:10:00,
2013-03-28 07:15:00,24.5,18.0,30.24,NW,306,0.0,0.0,76,0.00,CLR,,0.00,WeatherDisplay:10.37,2013-03-28 12:15:00,
2013-03-28 07:20:00,24.5,18.3,30.24,NW,306,0.0,0.0,77,0.00,CLR,,0.00,WeatherDisplay:10.37,2013-03-28 12:20:00,
2013-03-28 07:25:00,24.8,18.6,30.24,NW,306,0.0,2.0,77,0.00,CLR,,0.00,WeatherDisplay:10.37,2013-03-28 12:25:00,
2013-03-28 07:30:00,25.2,18.6,30.25,NW,306,1.0,2.0,76,0.00,CLR,,0.00,WeatherDisplay:10.37,2013-03-28 12:30:00,
2013-03-28 07:35:00,25.6,18.5,30.25,NW,306,1.0,2.0,74,0.00,CLR,,0.00,WeatherDisplay:10.37,2013-03-28 12:35:00,
2013-03-28 07:40:00,25.7,18.6,30.25,NW,306,0.0,2.0,74,0.00,CLR,,0.00,WeatherDisplay:10.37,2013-03-28 12:40:00,
2013-03-28 07:50:00,26.3,18.5,30.25,NW,312,1.0,3.0,72,0.00,CLR,,0.00,WeatherDisplay:10.37,2013-03-28 12:50:00,
2013-03-28 07:55:00,26.6,18.5,30.25,NW,317,1.0,4.0,71,0.00,CLR,,0.00,WeatherDisplay:10.37,2013-03-28 12:55:00,
2013-03-28 08:00:00,26.6,18.8,30.25,NW,319,0.0,1.0,72,0.00,CLR,,0.00,WeatherDisplay:10.37,2013-03-28 13:00:00,
2013-03-28 08:05:00,26.7,18.9,30.25,NW,320,0.0,2.0,72,0.00,CLR,,0.00,WeatherDisplay:10.37,2013-03-28 13:05:00,
2013-03-28 08:10:00,27.0,18.8,30.25,NW,319,1.0,3.0,71,0.00,CLR,,0.00,WeatherDisplay:10.37,2013-03-28 13:10:00,
2013-03-28 08:15:00,27.3,18.8,30.25,NW,319,1.0,3.0,70,0.00,CLR,,0.00,WeatherDisplay:10.37,2013-03-28 13:15:00,
2013-03-28 08:25:00,27.9,19.0,30.25,NW,323,1.0,3.0,69,0.00,CLR,,0.00,WeatherDisplay:10.37,2013-03-28 13:25:00,
2013-03-28 08:30:00,28.1,19.3,30.26,NW,314,1.0,3.0,69,0.00,CLR,,0.00,WeatherDisplay:10.37,2013-03-28 13:30:00,
2013-03-28 08:35:00,28.4,19.5,30.26,NW,309,0.0,2.0,69,0.00,CLR,,0.00,WeatherDisplay:10.37,2013-03-28 13:35:00,
2013-03-28 08:45:00,28.5,20.3,30.26,NW,309,1.0,3.0,71,0.00,CLR,,0.00,WeatherDisplay:10.37,2013-03-28 13:45:00,
2013-03-28 08:50:00,28.7,20.5,30.26,NW,309,1.0,3.0,71,0.00,CLR,,0.00,WeatherDisplay:10.37,2013-03-28 13:50:00,
2013-03-28 08:55:00,28.8,20.6,30.26,NW,309,1.0,2.0,71,0.00,CLR,,0.00,WeatherDisplay:10.37,2013-03-28 13:55:00,
2013-03-28 09:00:00,28.9,20.4,30.27,NW,309,1.0,3.0,70,0.00,CLR,,0.00,WeatherDisplay:10.37,2013-03-28 14:00:00,
2013-03-28 09:05:00,29.0,20.4,30.27,NW,309,2.0,4.0,70,0.00,CLR,,0.00,WeatherDisplay:10.37,2013-03-28 14:05:00,
2013-03-28 09:10:00,29.1,20.5,30.27,NW,309,0.0,2.0,70,0.00,CLR,,0.00,WeatherDisplay:10.37,2013-03-28 14:10:00,
2013-03-28 09:15:00,29.4,20.1,30.27,NW,309,2.0,4.0,68,0.00,CLR,,0.00,WeatherDisplay:10.37,2013-03-28 14:15:00,
2013-03-28 09:20:00,29.5,20.2,30.27,NW,309,1.0,3.0,68,0.00,CLR,,0.00,WeatherDisplay:10.37,2013-03-28 14:20:00,
2013-03-28 09:25:00,29.7,20.1,30.27,NW,309,2.0,3.0,67,0.00,CLR,,0.00,WeatherDisplay:10.37,2013-03-28 14:25:00,
2013-03-28 09:30:00,29.8,19.8,30.26,NW,309,3.0,4.0,66,0.00,CLR,,0.00,WeatherDisplay:10.37,2013-03-28 14:30:00,
2013-03-28 09:35:00,30.0,20.4,30.26,NW,309,1.0,4.0,67,0.00,CLR,,0.00,WeatherDisplay:10.37,2013-03-28 14:35:00,
2013-03-28 09:40:00,30.3,20.3,30.26,NW,309,1.0,3.0,66,0.00,CLR,,0.00,WeatherDisplay:10.37,2013-03-28 14:40:00,
2013-03-28 09:45:00,30.6,20.6,30.26,NW,308,2.0,3.0,66,0.00,CLR,,0.00,WeatherDisplay:10.37,2013-03-28 14:45:00,
2013-03-28 09:50:00,30.6,20.2,30.26,NW,309,2.0,3.0,65,0.00,CLR,,0.00,WeatherDisplay:10.37,2013-03-28 14:50:00,
2013-03-28 09:55:00,30.9,20.5,30.26,NW,309,2.0,3.0,65,0.00,CLR,,0.00,WeatherDisplay:10.37,2013-03-28 14:55:00,
2013-03-28 10:00:00,31.0,21.0,30.26,NW,309,1.0,3.0,66,0.00,CLR,,0.00,WeatherDisplay:10.37,2013-03-28 15:00:00,
2013-03-28 10:05:00,31.3,21.6,30.26,NW,309,1.0,3.0,67,0.00,CLR,,0.00,WeatherDisplay:10.37,2013-03-28 15:05:00,
2013-03-28 10:15:00,31.9,21.1,30.27,NW,309,1.0,3.0,64,0.00,CLR,,0.00,WeatherDisplay:10.37,2013-03-28 15:15:00,
2013-03-28 10:20:00,32.2,21.0,30.27,NW,307,2.0,3.0,63,0.00,CLR,,0.00,WeatherDisplay:10.37,2013-03-28 15:20:00,
2013-03-28 10:25:00,32.5,21.6,30.27,NW,306,2.0,3.0,64,0.00,CLR,,0.00,WeatherDisplay:10.37,2013-03-28 15:25:00,
2013-03-28 10:30:00,32.7,21.5,30.27,NW,306,2.0,3.0,63,0.00,CLR,,0.00,WeatherDisplay:10.37,2013-03-28 15:30:00,
2013-03-28 10:35:00,32.8,20.8,30.27,NW,306,2.0,3.0,61,0.00,CLR,,0.00,WeatherDisplay:10.37,2013-03-28 15:35:00,
2013-03-28 10:40:00,32.9,20.9,30.27,NW,306,2.0,3.0,61,0.00,CLR,,0.00,WeatherDisplay:10.37,2013-03-28 15:40:00,
2013-03-28 10:45:00,33.1,20.7,30.26,NW,306,2.0,4.0,60,0.00,CLR,,0.00,WeatherDisplay:10.37,2013-03-28 15:45:00,
2013-03-28 10:50:00,33.2,20.8,30.26,NW,306,2.0,4.0,60,0.00,CLR,,0.00,WeatherDisplay:10.37,2013-03-28 15:50:00,
2013-03-28 10:55:00,33.7,21.3,30.26,WNW,295,2.0,4.0,60,0.00,CLR,,0.00,WeatherDisplay:10.37,2013-03-28 15:55:00,
2013-03-28 11:00:00,34.1,20.9,30.26,West,281,1.0,3.0,58,0.00,CLR,,0.00,WeatherDisplay:10.37,2013-03-28 16:00:00,
2013-03-28 11:05:00,34.3,21.5,30.26,WNW,284,2.0,3.0,59,0.00,CLR,,0.00,WeatherDisplay:10.37,2013-03-28 16:05:00,
2013-03-28 11:10:00,34.6,22.1,30.26,WNW,292,2.0,4.0,60,0.00,CLR,,0.00,WeatherDisplay:10.37,2013-03-28 16:10:00,
2013-03-28 11:15:00,34.7,22.2,30.27,WNW,294,2.0,4.0,60,0.00,CLR,,0.00,WeatherDisplay:10.37,2013-03-28 16:15:00,
2013-03-28 11:20:00,35.0,22.1,30.27,WNW,301,1.0,4.0,59,0.00,CLR,,0.00,WeatherDisplay:10.37,2013-03-28 16:20:00,
2013-03-28 11:25:00,35.2,21.9,30.27,NW,307,3.0,4.0,58,0.00,CLR,,0.00,WeatherDisplay:10.37,2013-03-28 16:25:00,
2013-03-28 11:30:00,35.3,23.1,30.27,WNW,301,2.0,4.0,61,0.00,CLR,,0.00,WeatherDisplay:10.37,2013-03-28 16:30:00,
2013-03-28 11:35:00,35.8,22.4,30.27,WNW,296,1.0,4.0,58,0.00,CLR,,0.00,WeatherDisplay:10.37,2013-03-28 16:35:00,
2013-03-28 11:40:00,36.0,23.0,30.27,WNW,293,1.0,3.0,59,0.00,CLR,,0.00,WeatherDisplay:10.37,2013-03-28 16:40:00,
2013-03-28 11:45:00,36.0,22.2,30.27,WNW,292,2.0,4.0,57,0.00,CLR,,0.00,WeatherDisplay:10.37,2013-03-28 16:45:00,
2013-03-28 11:50:00,36.2,23.2,30.27,WNW,296,2.0,3.0,59,0.00,CLR,,0.00,WeatherDisplay:10.37,2013-03-28 16:50:00,
2013-03-28 11:55:00,36.3,21.7,30.27,WNW,299,2.0,4.0,55,0.00,CLR,,0.00,WeatherDisplay:10.37,2013-03-28 16:55:00,
2013-03-28 12:00:00,36.5,21.4,30.27,WNW,296,2.0,4.0,54,0.00,CLR,,0.00,WeatherDisplay:10.37,2013-03-28 17:00:00,
2013-03-28 12:05:00,36.9,22.2,30.27,WNW,296,3.0,4.0,55,0.00,CLR,,0.00,WeatherDisplay:10.37,2013-03-28 17:05:00,
2013-03-28 12:10:00,37.0,23.2,30.27,WNW,290,2.0,4.0,57,0.00,CLR,,0.00,WeatherDisplay:10.37,2013-03-28 17:10:00,
2013-03-28 12:15:00,37.5,22.8,30.27,West,281,2.0,3.0,55,0.00,CLR,,0.00,WeatherDisplay:10.37,2013-03-28 17:15:00,
2013-03-28 12:20:00,37.5,21.9,30.27,WNW,291,2.0,4.0,53,0.00,CLR,,0.00,WeatherDisplay:10.37,2013-03-28 17:20:00,
2013-03-28 12:25:00,37.8,23.0,30.27,WNW,290,2.0,4.0,55,0.00,CLR,,0.00,WeatherDisplay:10.37,2013-03-28 17:25:00,
2013-03-28 12:30:00,38.2,23.4,30.26,West,279,2.0,3.0,55,0.00,CLR,,0.00,WeatherDisplay:10.37,2013-03-28 17:30:00,
2013-03-28 12:35:00,38.3,23.5,30.26,WNW,282,2.0,4.0,55,0.00,CLR,,0.00,WeatherDisplay:10.37,2013-03-28 17:35:00,
2013-03-28 12:40:00,38.2,23.4,30.26,WNW,298,2.0,4.0,55,0.00,CLR,,0.00,WeatherDisplay:10.37,2013-03-28 17:40:00,
2013-03-28 12:45:00,38.1,23.8,30.26,WNW,303,2.0,4.0,56,0.00,CLR,,0.00,WeatherDisplay:10.37,2013-03-28 17:45:00,
2013-03-28 12:50:00,38.6,23.8,30.26,WNW,284,2.0,4.0,55,0.00,CLR,,0.00,WeatherDisplay:10.37,2013-03-28 17:50:00,
2013-03-28 12:55:00,38.6,22.9,30.26,WNW,290,2.0,4.0,53,0.00,CLR,,0.00,WeatherDisplay:10.37,2013-03-28 17:55:00,
2013-03-28 13:00:00,38.6,22.5,30.26,NW,309,1.0,3.0,52,0.00,CLR,,0.00,WeatherDisplay:10.37,2013-03-28 18:00:00,
2013-03-28 13:05:00,38.6,22.0,30.26,NW,308,2.0,4.0,51,0.00,CLR,,0.00,WeatherDisplay:10.37,2013-03-28 18:05:00,
2013-03-28 13:10:00,38.8,22.7,30.26,WNW,302,2.0,4.0,52,0.00,CLR,,0.00,WeatherDisplay:10.37,2013-03-28 18:10:00,
2013-03-28 13:15:00,38.9,21.8,30.26,WNW,296,2.0,3.0,50,0.00,CLR,,0.00,WeatherDisplay:10.37,2013-03-28 18:15:00,
2013-03-28 13:20:00,39.2,22.5,30.26,WNW,297,1.0,4.0,51,0.00,CLR,,0.00,WeatherDisplay:10.37,2013-03-28 18:20:00,
2013-03-28 13:25:00,39.3,22.2,30.26,NW,304,2.0,3.0,50,0.00,CLR,,0.00,WeatherDisplay:10.37,2013-03-28 18:25:00,
2013-03-28 13:30:00,39.2,22.6,30.26,WNW,298,1.0,4.0,51,0.00,CLR,,0.00,WeatherDisplay:10.37,2013-03-28 18:30:00,
2013-03-28 13:35:00,39.2,22.1,30.26,WNW,296,1.0,4.0,50,0.00,CLR,,0.00,WeatherDisplay:10.37,2013-03-28 18:35:00,
2013-03-28 13:40:00,39.2,22.6,30.26,WNW,303,2.0,4.0,51,0.00,CLR,,0.00,WeatherDisplay:10.37,2013-03-28 18:40:00,
2013-03-28 13:45:00,39.3,21.7,30.26,NW,306,2.0,4.0,49,0.00,CLR,,0.00,WeatherDisplay:10.37,2013-03-28 18:45:00,
2013-03-28 13:50:00,39.5,22.4,30.26,WNW,301,2.0,4.0,50,0.00,CLR,,0.00,WeatherDisplay:10.37,2013-03-28 18:50:00,
2013-03-28 13:55:00,39.8,22.2,30.26,WNW,303,2.0,4.0,49,0.00,CLR,,0.00,WeatherDisplay:10.37,2013-03-28 18:55:00,
2013-03-28 14:00:00,39.9,22.3,30.25,NW,304,1.0,4.0,49,0.00,CLR,,0.00,WeatherDisplay:10.37,2013-03-28 19:00:00,
2013-03-28 14:10:00,40.6,21.4,30.25,WSW,253,2.0,4.0,46,0.00,CLR,,0.00,WeatherDisplay:10.37,2013-03-28 19:10:00,
2013-03-28 14:15:00,40.8,22.1,30.25,West,262,1.0,5.0,47,0.00,CLR,,0.00,WeatherDisplay:10.37,2013-03-28 19:15:00,
2013-03-28 14:20:00,40.8,21.6,30.25,West,277,1.0,4.0,46,0.00,CLR,,0.00,WeatherDisplay:10.37,2013-03-28 19:20:00,
2013-03-28 14:25:00,40.8,22.1,30.25,West,266,2.0,5.0,47,0.00,CLR,,0.00,WeatherDisplay:10.37,2013-03-28 19:25:00,
2013-03-28 14:30:00,41.2,22.4,30.24,WSW,252,1.0,4.0,47,0.00,CLR,,0.00,WeatherDisplay:10.37,2013-03-28 19:30:00,
2013-03-28 14:35:00,41.2,22.5,30.24,WSW,247,0.0,4.0,47,0.00,CLR,,0.00,WeatherDisplay:10.37,2013-03-28 19:35:00,
2013-03-28 14:40:00,41.6,22.3,30.24,WSW,249,0.0,3.0,46,0.00,CLR,,0.00,WeatherDisplay:10.37,2013-03-28 19:40:00,
2013-03-28 14:45:00,41.5,23.2,30.24,West,263,2.0,3.0,48,0.00,CLR,,0.00,WeatherDisplay:10.37,2013-03-28 19:45:00,
2013-03-28 14:50:00,41.6,21.3,30.24,WSW,247,0.0,3.0,44,0.00,CLR,,0.00,WeatherDisplay:10.37,2013-03-28 19:50:00,
2013-03-28 14:55:00,41.9,23.1,30.24,SW,217,1.0,4.0,47,0.00,CLR,,0.00,WeatherDisplay:10.37,2013-03-28 19:55:00,
2013-03-28 15:05:00,42.6,22.7,30.24,SW,224,2.0,4.0,45,0.00,CLR,,0.00,WeatherDisplay:10.37,2013-03-28 20:05:00,
2013-03-28 15:10:00,43.1,21.0,30.24,SW,222,0.0,4.0,41,0.00,CLR,,0.00,WeatherDisplay:10.37,2013-03-28 20:10:00,
2013-03-28 15:15:00,43.2,21.6,30.23,SW,220,1.0,4.0,42,0.00,CLR,,0.00,WeatherDisplay:10.37,2013-03-28 20:15:00,
2013-03-28 15:20:00,43.2,19.3,30.23,SW,219,0.0,2.0,38,0.00,CLR,,0.00,WeatherDisplay:10.37,2013-03-28 20:20:00,
2013-03-28 15:25:00,42.7,21.7,30.23,SW,219,0.0,4.0,43,0.00,CLR,,0.00,WeatherDisplay:10.37,2013-03-28 20:25:00,
2013-03-28 15:30:00,42.6,21.1,30.23,SW,217,0.0,4.0,42,0.00,CLR,,0.00,WeatherDisplay:10.37,2013-03-28 20:30:00,
2013-03-28 15:35:00,42.9,21.4,30.23,SW,215,1.0,3.0,42,0.00,CLR,,0.00,WeatherDisplay:10.37,2013-03-28 20:35:00,
2013-03-28 15:40:00,43.2,19.9,30.23,SW,215,0.0,3.0,39,0.00,CLR,,0.00,WeatherDisplay:10.37,2013-03-28 20:40:00,
2013-03-28 15:45:00,43.2,19.3,30.22,WSW,239,0.0,4.0,38,0.00,CLR,,0.00,WeatherDisplay:10.37,2013-03-28 20:45:00,
2013-03-28 15:55:00,42.5,21.5,30.22,West,274,2.0,4.0,43,0.00,CLR,,0.00,WeatherDisplay:10.37,2013-03-28 20:55:00,
2013-03-28 16:00:00,42.8,20.7,30.22,SSW,199,2.0,5.0,41,0.00,CLR,,0.00,WeatherDisplay:10.37,2013-03-28 21:00:00,
2013-03-28 16:05:00,43.1,19.8,30.22,SSE,151,0.0,3.0,39,0.00,CLR,,0.00,WeatherDisplay:10.37,2013-03-28 21:05:00,
2013-03-28 16:10:00,43.3,20.6,30.22,SW,214,1.0,4.0,40,0.00,CLR,,0.00,WeatherDisplay:10.37,2013-03-28 21:10:00,
2013-03-28 16:15:00,43.3,20.0,30.21,WSW,237,0.0,3.0,39,0.00,CLR,,0.00,WeatherDisplay:10.37,2013-03-28 21:15:00,
2013-03-28 16:25:00,43.1,21.5,30.21,SW,236,0.0,3.0,42,0.00,CLR,,0.00,WeatherDisplay:10.37,2013-03-28 21:25:00,
2013-03-28 16:30:00,43.2,22.2,30.21,SW,236,0.0,2.0,43,0.00,CLR,,0.00,WeatherDisplay:10.37,2013-03-28 21:30:00,
2013-03-28 16:40:00,43.2,21.6,30.21,SW,236,0.0,3.0,42,0.00,CLR,,0.00,WeatherDisplay:10.37,2013-03-28 21:40:00,
2013-03-28 16:45:00,43.2,22.2,30.21,SW,236,0.0,2.0,43,0.00,CLR,,0.00,WeatherDisplay:10.37,2013-03-28 21:45:00,
2013-03-28 16:50:00,42.7,21.2,30.21,SW,236,0.0,3.0,42,0.00,CLR,,0.00,WeatherDisplay:10.37,2013-03-28 21:50:00,
2013-03-28 16:55:00,42.5,20.4,30.21,SW,236,1.0,3.0,41,0.00,CLR,,0.00,WeatherDisplay:10.37,2013-03-28 21:55:00,
2013-03-28 17:00:00,42.6,21.1,30.21,SW,232,2.0,4.0,42,0.00,CLR,,0.00,WeatherDisplay:10.37,2013-03-28 22:00:00,
2013-03-28 17:05:00,42.9,23.0,30.21,SW,230,2.0,4.0,45,0.00,CLR,,0.00,WeatherDisplay:10.37,2013-03-28 22:05:00,
2013-03-28 17:10:00,42.9,23.0,30.21,SW,227,2.0,4.0,45,0.00,CLR,,0.00,WeatherDisplay:10.37,2013-03-28 22:10:00,
2013-03-28 17:15:00,42.8,23.4,30.21,SW,225,2.0,4.0,46,0.00,CLR,,0.00,WeatherDisplay:10.37,2013-03-28 22:15:00,
2013-03-28 17:20:00,42.8,22.4,30.21,SW,222,3.0,6.0,44,0.00,CLR,,0.00,WeatherDisplay:10.37,2013-03-28 22:20:00,
2013-03-28 17:25:00,42.8,23.9,30.21,SW,219,1.0,5.0,47,0.00,CLR,,0.00,WeatherDisplay:10.37,2013-03-28 22:25:00,
2013-03-28 17:30:00,42.7,23.3,30.21,SW,217,3.0,6.0,46,0.00,CLR,,0.00,WeatherDisplay:10.37,2013-03-28 22:30:00,
2013-03-28 17:35:00,42.6,23.2,30.21,SW,218,3.0,5.0,46,0.00,CLR,,0.00,WeatherDisplay:10.37,2013-03-28 22:35:00,
2013-03-28 17:40:00,42.5,24.2,30.21,SW,222,3.0,5.0,48,0.00,CLR,,0.00,WeatherDisplay:10.37,2013-03-28 22:40:00,
2013-03-28 17:45:00,42.2,23.9,30.21,SW,221,3.0,5.0,48,0.00,CLR,,0.00,WeatherDisplay:10.37,2013-03-28 22:45:00,
2013-03-28 17:50:00,42.1,24.8,30.21,SW,219,2.0,4.0,50,0.00,CLR,,0.00,WeatherDisplay:10.37,2013-03-28 22:50:00,
2013-03-28 18:00:00,41.8,24.0,30.21,SW,217,2.0,4.0,49,0.00,CLR,,0.00,WeatherDisplay:10.37,2013-03-28 23:00:00,
2013-03-28 18:05:00,41.6,24.3,30.21,SW,217,2.0,5.0,50,0.00,CLR,,0.00,WeatherDisplay:10.37,2013-03-28 23:05:00,
2013-03-28 18:10:00,41.6,24.3,30.21,SW,216,1.0,4.0,50,0.00,CLR,,0.00,WeatherDisplay:10.37,2013-03-28 23:10:00,
2013-03-28 18:15:00,41.4,24.2,30.20,SW,216,0.0,3.0,50,0.00,CLR,,0.00,WeatherDisplay:10.37,2013-03-28 23:15:00,
2013-03-28 18:20:00,41.2,23.9,30.20,SW,216,0.0,3.0,50,0.00,CLR,,0.00,WeatherDisplay:10.37,2013-03-28 23:20:00,
2013-03-28 18:25:00,41.1,23.9,30.20,SW,216,0.0,3.0,50,0.00,CLR,,0.00,WeatherDisplay:10.37,2013-03-28 23:25:00,
2013-03-28 18:30:00,40.9,23.7,30.21,SW,216,0.0,4.0,50,0.00,CLR,,0.00,WeatherDisplay:10.37,2013-03-28 23:30:00,
2013-03-28 18:40:00,40.5,23.3,30.21,SW,216,0.0,3.0,50,0.00,CLR,,0.00,WeatherDisplay:10.37,2013-03-28 23:40:00,
2013-03-28 18:45:00,40.3,23.1,30.21,SW,216,0.0,3.0,50,0.00,CLR,,0.00,WeatherDisplay:10.37,2013-03-28 23:45:00,
2013-03-28 18:50:00,40.1,23.4,30.21,SW,216,0.0,2.0,51,0.00,CLR,,0.00,WeatherDisplay:10.37,2013-03-28 23:50:00,
2013-03-28 18:55:00,39.6,23.0,30.21,SW,216,0.0,0.0,51,0.00,CLR,,0.00,WeatherDisplay:10.37,2013-03-28 23:55:00,
2013-03-28 19:00:00,39.3,22.6,30.21,SW,216,0.0,2.0,51,0.00,CLR,,0.00,WeatherDisplay:10.37,2013-03-29 00:00:00,
2013-03-28 19:05:00,38.8,22.7,30.21,SW,216,0.0,2.0,52,0.00,CLR,,0.00,WeatherDisplay:10.37,2013-03-29 00:05:00,
2013-03-28 19:10:00,38.3,22.6,30.21,SW,216,0.0,1.0,53,0.00,CLR,,0.00,WeatherDisplay:10.37,2013-03-29 00:10:00,
2013-03-28 19:15:00,37.9,22.2,30.21,SW,216,0.0,1.0,53,0.00,CLR,,0.00,WeatherDisplay:10.37,2013-03-29 00:15:00,
2013-03-28 19:20:00,37.3,22.2,30.21,SW,216,0.0,0.0,54,0.00,CLR,,0.00,WeatherDisplay:10.37,2013-03-29 00:20:00,
2013-03-28 19:25:00,36.9,22.2,30.21,SW,216,0.0,0.0,55,0.00,CLR,,0.00,WeatherDisplay:10.37,2013-03-29 00:25:00,
2013-03-28 19:30:00,36.3,22.5,30.21,SW,216,0.0,0.0,57,0.00,CLR,,0.00,WeatherDisplay:10.37,2013-03-29 00:30:00,
2013-03-28 19:40:00,35.0,22.5,30.21,SW,215,0.0,0.0,60,0.00,CLR,,0.00,WeatherDisplay:10.37,2013-03-29 00:40:00,
2013-03-28 19:45:00,34.4,21.5,30.21,SW,215,0.0,0.0,59,0.00,CLR,,0.00,WeatherDisplay:10.37,2013-03-29 00:45:00,
2013-03-28 19:55:00,33.5,21.1,30.21,SW,216,0.0,0.0,60,0.00,CLR,,0.00,WeatherDisplay:10.37,2013-03-29 00:55:00,
2013-03-28 20:00:00,33.1,21.1,30.21,SW,216,0.0,0.0,61,0.00,CLR,,0.00,WeatherDisplay:10.37,2013-03-29 01:00:00,
2013-03-28 20:05:00,32.8,20.8,30.21,SW,216,0.0,0.0,61,0.00,CLR,,0.00,WeatherDisplay:10.37,2013-03-29 01:05:00,
2013-03-28 20:10:00,32.7,20.7,30.21,SW,216,0.0,0.0,61,0.00,CLR,,0.00,WeatherDisplay:10.37,2013-03-29 01:10:00,
2013-03-28 20:15:00,32.4,20.4,30.21,SW,216,0.0,0.0,61,0.00,CLR,,0.00,WeatherDisplay:10.37,2013-03-29 01:15:00,
2013-03-28 20:20:00,32.2,21.0,30.21,SW,216,0.0,0.0,63,0.00,CLR,,0.00,WeatherDisplay:10.37,2013-03-29 01:20:00,
2013-03-28 20:25:00,32.1,20.9,30.21,SW,216,0.0,0.0,63,0.00,CLR,,0.00,WeatherDisplay:10.37,2013-03-29 01:25:00,
2013-03-28 20:30:00,31.8,21.0,30.21,SW,216,0.0,0.0,64,0.00,CLR,,0.00,WeatherDisplay:10.37,2013-03-29 01:30:00,
2013-03-28 20:35:00,31.6,21.9,30.21,SW,216,0.0,0.0,67,0.00,CLR,,0.00,WeatherDisplay:10.37,2013-03-29 01:35:00,
2013-03-28 20:40:00,31.6,21.9,30.21,SW,216,0.0,0.0,67,0.00,CLR,,0.00,WeatherDisplay:10.37,2013-03-29 01:40:00,
2013-03-28 20:45:00,31.6,21.9,30.22,SW,216,0.0,0.0,67,0.00,CLR,,0.00,WeatherDisplay:10.37,2013-03-29 01:45:00,
2013-03-28 20:50:00,31.5,22.5,30.22,SW,216,0.0,0.0,69,0.00,CLR,,0.00,WeatherDisplay:10.37,2013-03-29 01:50:00,
2013-03-28 20:55:00,31.2,22.2,30.22,SW,216,0.0,0.0,69,0.00,CLR,,0.00,WeatherDisplay:10.37,2013-03-29 01:55:00,
2013-03-28 21:00:00,30.9,22.3,30.22,SW,216,0.0,0.0,70,0.00,CLR,,0.00,WeatherDisplay:10.37,2013-03-29 02:00:00,
2013-03-28 21:05:00,30.6,22.0,30.22,SW,216,0.0,0.0,70,0.00,CLR,,0.00,WeatherDisplay:10.37,2013-03-29 02:05:00,
2013-03-28 21:10:00,30.3,21.7,30.22,SW,216,0.0,0.0,70,0.00,CLR,,0.00,WeatherDisplay:10.37,2013-03-29 02:10:00,
2013-03-28 21:15:00,30.0,21.4,30.22,SW,216,0.0,0.0,70,0.00,CLR,,0.00,WeatherDisplay:10.37,2013-03-29 02:15:00,
2013-03-28 21:20:00,29.8,21.9,30.22,SW,216,0.0,0.0,72,0.00,CLR,,0.00,WeatherDisplay:10.37,2013-03-29 02:20:00,
2013-03-28 21:25:00,29.7,21.8,30.22,SW,216,0.0,0.0,72,0.00,CLR,,0.00,WeatherDisplay:10.37,2013-03-29 02:25:00,
2013-03-28 21:30:00,29.7,22.1,30.22,SW,216,0.0,0.0,73,0.00,CLR,,0.00,WeatherDisplay:10.37,2013-03-29 02:30:00,
2013-03-28 21:35:00,29.5,22.2,30.22,SW,216,0.0,0.0,74,0.00,CLR,,0.00,WeatherDisplay:10.37,2013-03-29 02:35:00,
2013-03-28 21:40:00,29.3,22.4,30.22,SW,216,0.0,0.0,75,0.00,CLR,,0.00,WeatherDisplay:10.37,2013-03-29 02:40:00,
2013-03-28 21:45:00,29.0,21.8,30.22,SW,216,0.0,0.0,74,0.00,CLR,,0.00,WeatherDisplay:10.37,2013-03-29 02:45:00,
2013-03-28 21:50:00,28.8,21.2,30.22,SW,216,0.0,0.0,73,0.00,CLR,,0.00,WeatherDisplay:10.37,2013-03-29 02:50:00,
2013-03-28 21:55:00,28.6,21.4,30.22,SW,216,0.0,0.0,74,0.00,CLR,,0.00,WeatherDisplay:10.37,2013-03-29 02:55:00,
2013-03-28 22:00:00,28.4,21.2,30.22,SW,216,0.0,0.0,74,0.00,CLR,,0.00,WeatherDisplay:10.37,2013-03-29 03:00:00,
2013-03-28 22:05:00,28.2,20.6,30.22,SW,216,0.0,0.0,73,0.00,CLR,,0.00,WeatherDisplay:10.37,2013-03-29 03:05:00,
2013-03-28 22:10:00,27.9,20.7,30.22,SW,216,0.0,0.0,74,0.00,CLR,,0.00,WeatherDisplay:10.37,2013-03-29 03:10:00,
2013-03-28 22:15:00,27.8,21.2,30.22,SW,216,0.0,0.0,76,0.00,CLR,,0.00,WeatherDisplay:10.37,2013-03-29 03:15:00,
2013-03-28 22:20:00,27.6,21.0,30.22,SW,216,0.0,0.0,76,0.00,CLR,,0.00,WeatherDisplay:10.37,2013-03-29 03:20:00,
2013-03-28 22:25:00,27.3,20.7,30.22,SW,216,0.0,0.0,76,0.00,CLR,,0.00,WeatherDisplay:10.37,2013-03-29 03:25:00,
2013-03-28 22:30:00,27.3,20.7,30.22,SW,216,0.0,0.0,76,0.00,CLR,,0.00,WeatherDisplay:10.37,2013-03-29 03:30:00,
2013-03-28 22:40:00,27.2,20.3,30.22,SW,216,0.0,0.0,75,0.00,CLR,,0.00,WeatherDisplay:10.37,2013-03-29 03:40:00,
2013-03-28 22:45:00,27.2,20.3,30.22,SW,216,0.0,0.0,75,0.00,CLR,,0.00,WeatherDisplay:10.37,2013-03-29 03:45:00,
2013-03-28 22:55:00,27.0,20.7,30.22,SW,216,0.0,0.0,77,0.00,CLR,,0.00,WeatherDisplay:10.37,2013-03-29 03:55:00,
2013-03-28 23:00:00,26.9,20.3,30.22,SW,216,0.0,0.0,76,0.00,CLR,,0.00,WeatherDisplay:10.37,2013-03-29 04:00:00,
2013-03-28 23:05:00,26.7,20.5,30.22,SW,216,0.0,0.0,77,0.00,CLR,,0.00,WeatherDisplay:10.37,2013-03-29 04:05:00,
2013-03-28 23:15:00,26.7,20.1,30.22,SW,216,0.0,0.0,76,0.00,CLR,,0.00,WeatherDisplay:10.37,2013-03-29 04:15:00,
2013-03-28 23:20:00,26.7,20.5,30.22,SW,216,0.0,0.0,77,0.00,CLR,,0.00,WeatherDisplay:10.37,2013-03-29 04:20:00,
2013-03-28 23:25:00,26.6,20.1,30.22,SW,216,0.0,0.0,76,0.00,CLR,,0.00,WeatherDisplay:10.37,2013-03-29 04:25:00,
2013-03-28 23:30:00,26.4,20.2,30.22,SW,216,0.0,0.0,77,0.00,CLR,,0.00,WeatherDisplay:10.37,2013-03-29 04:30:00,
2013-03-28 23:35:00,26.4,20.1,30.22,SW,216,0.0,0.0,77,0.00,CLR,,0.00,WeatherDisplay:10.37,2013-03-29 04:35:00,
2013-03-28 23:40:00,26.2,20.0,30.22,SW,216,0.0,0.0,77,0.00,CLR,,0.00,WeatherDisplay:10.37,2013-03-29 04:40:00,
2013-03-28 23:45:00,26.1,19.8,30.22,SW,216,0.0,0.0,77,0.00,CLR,,0.00,WeatherDisplay:10.37,2013-03-29 04:45:00,
2013-03-28 23:55:00,25.9,19.6,30.22,SW,216,0.0,0.0,77,0.00,CLR,,0.00,WeatherDisplay:10.37,2013-03-29 04:55:00,